sat.trackr.live / text

‹ back to catalog

STARLINK-6071

NORAD 56132 · 2023-046AS

PAYLOAD ACTIVE UNKNOWN

§ Identity

Operator
Country
US
Launch date
2023-03-29
Launch site
AFETR
Launch vehicle
Mass (kg)
RCS (m²)

Purposes: comms

External: N2YO · Heavens-Above · Gunter

§ Orbital elements

Epoch: 2026-05-25T04:32:52.410336Z

Period
94.27 min
Inclination
43.0054°
Eccentricity
0.0001392
Mean motion
15.27568139 rev/d
Perigee alt
482.1 km
Apogee alt
484.0 km
Semi-major
6,861.2 km
B*
1.1246e-4
RAAN
74.6289°
Arg perigee
296.9480°
Mean anomaly
63.1229°
Rev number
17,390

§ Raw data

STARLINK-60711 56132U 23046AS  26145.18949549  .00002833  00000+0  11246-3 0  99912 56132  43.0054  74.6289 0001392 296.9480  63.1229 15.27568139173904

JSON: /api/v1/satellites/56132 · /tle

For live sub-satellite position, see the globe view (requires WebGL).

§ Visibility from observer

Set your observer location to see the next 7 days of passes ≥ 10°. The values pass through the URL so the page stays shareable.

No JS? Fill the form by hand. The geolocation button needs JavaScript.